Flag for Mongolia Weather past 2 weeks in Ulaanbaatar, Mongolia

Now
54 °F

Passing clouds.


Feels Like: 51 °F
Forecast: 28 / 61 °F
Wind: 8 mph from Northwest

Location: Ulan-Bator


UV Index: 5 (Moderate)

Visibility: N/A


Pressure: 29.83 "Hg

Humidity: 19%

Dew point: 12 °F

Location of UlaanbaatarLocation

Historic Weather in Ulaanbaatar

°F

Ulaanbaatar temperature yesterday

Maximum temperature yesterday: 48 °F (at 4:30 PM)
Minimum temperature yesterday: 23 °F (at 5:30 AM)
Average temperature yesterday: 37 °F

Past Weeks' High & Low Weather Summary

 TemperatureHumidityPressure
High68 °F (Apr 12, 3:00 PM)93% (Apr 9, 5:30 AM)30.27 "Hg (Apr 9, 5:30 AM)
Low21 °F (Apr 9, 6:30 AM)9% (Apr 7, 3:30 PM)29.71 "Hg (Apr 16, 6:30 AM)
Average43 °F51%30.01 "Hg
* Reported Apr 6 7:00 PM — Apr 21 7:00 PM, Ulaanbaatar, Weather by CustomWeather, © 2014

Note: Actual official high and low records may vary slightly from our data, if they occured in-between our weather recording intervals... More about our weather records

Advertising

Historic Weather Conditions — Data for Previous 24 hours

 ConditionsComfort  
Time TempWeatherWind HumidityBarometerVisibility
7:00 PM
Apr 21
57 °FScattered clouds.8 mph14%29.80 "HgN/A
6:30 PM57 °FScattered clouds.8 mph15%29.80 "HgN/A
6:00 PM57 °FScattered clouds.15 mph14%29.80 "HgN/A
5:30 PM59 °FScattered clouds.17 mph14%29.80 "HgN/A
5:00 PM59 °FScattered clouds.13 mph13%29.83 "HgN/A
4:00 PM59 °FScattered clouds.17 mph16%29.83 "HgN/A
3:00 PM57 °FScattered clouds.20 mph14%29.86 "HgN/A
2:30 PM55 °FScattered clouds.15 mph15%29.86 "HgN/A
2:00 PM55 °FScattered clouds.20 mph23%29.89 "HgN/A
1:30 PM57 °FScattered clouds.13 mph23%29.89 "HgN/A
1:00 PM54 °FPassing clouds.10 mph28%29.92 "HgN/A
12:30 PM52 °FPassing clouds.15 mph30%29.92 "HgN/A
12:00 PM50 °FPassing clouds.10 mph32%29.95 "HgN/A
11:30 AM50 °FPassing clouds.10 mph30%29.95 "HgN/A
11:00 AM48 °FPassing clouds.6 mph32%29.98 "HgN/A
10:30 AM45 °FSunny.6 mph39%29.98 "Hg10 mi
10:00 AM41 °FSunny.1 mph49%29.98 "Hg10 mi
9:30 AM39 °FClear.1 mph52%29.98 "Hg5 mi
9:00 AM34 °FClear.1 mph65%30.01 "Hg5 mi
8:30 AM32 °FPartly sunny.1 mph69%30.01 "HgN/A
8:00 AM30 °FPartly sunny.No wind75%30.01 "HgN/A
7:30 AM27 °FSunny.1 mph86%30.01 "Hg10 mi
7:00 AM27 °FSunny.No wind80%30.01 "Hg10 mi
6:30 AM23 °FClear.No wind86%30.01 "Hg10 mi
6:00 AM23 °FClear.1 mph86%30.01 "Hg10 mi
5:00 AM23 °FClear.No wind80%30.01 "Hg10 mi
4:30 AM25 °FClear.No wind80%30.01 "Hg10 mi
4:00 AM23 °FClear.No wind86%30.01 "Hg10 mi
3:00 AM27 °FClear.No wind80%30.01 "Hg10 mi
2:00 AM27 °FClear.1 mph80%30.04 "Hg10 mi
1:00 AM28 °FClear.No wind74%30.04 "Hg10 mi
12:30 AM32 °FClear.1 mph60%30.04 "Hg10 mi
12:00 AM32 °FClear.No wind60%30.04 "Hg10 mi
11:30 PM
Apr 20
34 °FClear.No wind56%30.04 "Hg10 mi
11:00 PM37 °FClear.1 mph48%30.04 "Hg10 mi
10:30 PM36 °FClear.1 mph52%30.04 "Hg10 mi
10:00 PM36 °FClear.3 mph52%30.04 "Hg10 mi
9:30 PM34 °FClear.8 mph60%30.04 "Hg10 mi
9:00 PM34 °FPassing clouds.3 mph60%30.01 "HgN/A
8:30 PM37 °FPassing clouds.6 mph48%30.01 "HgN/A
8:00 PM43 °FPassing clouds.6 mph36%30.01 "HgN/A
Weather by CustomWeather, © 2014

See weather overview